World > North America > United States > Arkansas > Farmington

Hourly Farmington, AR Regional Weather

Feedback E-mail the Weather

Quick WX

Farmington, AR Weather Maps

°F °C°F °C
Farmington Weather Map
UTC Time: 8/14/2022, 16:28
Your Time:

Farmington, AR Regional Weather

Expires:202208141700;;090231
ASUS44 KLZK 141610
RWRLZK

WEATHER ROUNDUP FOR ARKANSAS
NATIONAL WEATHER SERVICE LITTLE ROCK AR
1100 AM CDT SUN AUG 14 2022

NOTE: "FAIR" INDICATES FEW OR NO CLOUDS BELOW 12,000 FEET WITH NO
SIGNIFICANT WEATHER AND/OR OBSTRUCTIONS TO VISIBILITY.


ARZ001-010-029-103-141700-
NORTHWEST ARKANSAS
  
CITY           SKY/WX    TMP DP  RH WIND       PRES   REMARKS
FAYETTEVILLE   MOSUNNY   86  61  42 S7        30.06S HX  86           
FORT SMITH     SUNNY     86  60  41 CALM      30.03S HX  86           
HARRISON       MOSUNNY   87  58  37 SW8       30.05S HX  86           
BENTONVILLE    SUNNY     84  63  49 SW9       30.07S HX  85           
ROGERS         SUNNY     85  62  46 W7        30.07S HX  85           
SILOAM SPGS    SUNNY     83  63  50 S9        30.06S                  
HIGHFILL       SUNNY     85  62  46 SW7       30.06S HX  85           
SPRINGDALE     SUNNY     84  64  51 SW8       30.06S HX  86           
$$


SKY/WX - Weather  TMP - Temperature  DP - Dew Point  RH - Humidity
WIND - Wind Direction/Speed PRES - Barometric Pressure VSB - Visibility
WCI - Wind Chill Index E13G22 Wind - East Wind 13 mph/Gusts of 22 mph

Trending Headlines

Farmington Radar Loop



Farmington Quick Facts


National Two Day Weather Forecast


E-mail the Farmington Weather Forecast

Voice your opinion or tell us about page issues...